Location: Poughquag
(41.6090°N, 73.6820°W)
Time: 03:25:44
(UTC-04:00)

Transit 2A - Pass Details

Date: 04 June 2020
Orbit: 592 x 967 km, 66.7° (Epoch: 06 July)

Event Time Altitude Azimuth Distance (km) Brightness Sun altitude
Rises 12:23:26 0° 189° (S) 2,988 9.3 69.9°
Reaches altitude 10° 12:25:43 10° 182° (S) 2,130 8.8 70.1°
Maximum altitude 12:30:17 42° 112° (ESE) 1,041 7.7 70.3°
Drops below altitude 10° 12:35:22 10° 42° (NE) 2,377 8.6 70.6°
Sets 12:38:02 0° 36° (NE) 3,377 9.2 70.7°
